Regional Weather Roundup
Issued by NWS Sterling, VA

Home | Current Version | Previous Version | Graphics & Text | Print | Product List | Glossary On
Versions: 1 2 3 4 5 6 7 8 9 10 11 12 13 14 15 16 17 18 19 20 21 22 23 24 25 26 27 28 29 30 31 32 33 34 35 36 37 38 39 40 41 42 43 44 45 46 47 48 49 50
000
ASUS41 KLWX 120910
RWRLWX

REGIONAL WEATHER ROUNDUP
NATIONAL WEATHER SERVICE BALTIMORE MD/WASHINGTON DC
400 AM EST TUE DEC 12 2017

Note: "FAIR" indicates few or no clouds below 12,000 feet
with no significant weather and/or obstructions to visibility.
 TC=TEMPERATURE CELSIUS

 * =Non NWS site. Station does not report precipitation (e.g. rain,
    snow, etc.), thunder, or fog.

DCZ001-MDZ009-015-VAZ040>042-051-053>054-121000-
WASHINGTON METRO

CITY           SKY/WX    TMP DP  RH WIND       PRES   REMARKS
WASHINGTON NAT CLOUDY    43  31  62 S13       29.70F
DULLES         CLOUDY    39  31  72 S9        29.68F
ANDREWS AFB    CLOUDY    40  31  69 S9        29.69F
FT BELVOIR     CLOUDY    41  30  66 SE6       29.70F
QUANTICO       CLOUDY    43  32  65 SW9       29.71F
COLLEGE PARK*  CLOUDY    38  31  76 CALM      29.69F
LEESBURG*      CLOUDY    39  32  75 S9        29.67F
MANASSAS*      CLOUDY    38  30  73 S6        29.69F
GAITHERSBURG*  MOCLDY    39  30  70 S7        29.68F

$$

MDZ006>007-011-014-121000-
BALTIMORE METRO

CITY           SKY/WX    TMP DP  RH WIND       PRES   REMARKS
BWI AIRPORT    CLOUDY    41  32  70 S3        29.70F
MD SCIENCE CTR   N/A     44  31  60 MISG      29.71F
MARTIN STATE   CLOUDY    43  39  87 SE7       29.73F
ANNAPOLIS      CLOUDY    44  36  73 S14       29.70F
FORT MEADE*    CLOUDY    37  32  81 S5        29.72F

$$

MDZ012-015-019>023-121000-
MARYLAND EASTERN SHORE

CITY           SKY/WX    TMP DP  RH WIND       PRES   REMARKS
OCEAN CITY     CLOUDY    46  39  76 SW8       29.80F
SALISBURY      CLOUDY    40  36  86 S10       29.78F
BAY BRIDGE AP* CLOUDY    45  36  70 S13       29.71F
CAMBRIDGE*     PTCLDY    43  37  81 S10G22    29.74F
EASTON*        CLOUDY    43  37  78 S12       29.77F

$$

MDZ017>025-121000-
SOUTHERN MARYLAND

CITY           SKY/WX    TMP DP  RH WIND       PRES   REMARKS
PATUXENT RIVER CLOUDY    43  33  68 S7        29.74F
ST INIGOES     PTCLDY    44  34  67 S13       29.73F
LEONARDTOWN*   PTCLDY    41  32  70 S7        29.75F

$$

MDZ003>005-121000-
NORTH CENTRAL MARYLAND

CITY           SKY/WX    TMP DP  RH WIND       PRES   REMARKS
FREDERICK*     MOCLDY    39  28  65 S3        29.70F
HAGERSTOWN APT CLOUDY    40  28  62 S8        29.62F
WESTMINSTER*   CLOUDY    37  34  87 S7        29.66F

$$

MDZ501>502-121000-
WESTERN MARYLAND

CITY           SKY/WX    TMP DP  RH WIND       PRES   REMARKS
OAKLAND*       CLOUDY    37  27  65 SW17G23   29.52F WCI  28
CUMBERLAND*    MOCLDY    32  28  86 E3        29.66F

$$

VAZ025>031-121000-
SHENANDOAH VALLEY

CITY           SKY/WX    TMP DP  RH WIND       PRES   REMARKS
WINCHESTER*    CLOUDY    36  28  75 S5        29.62F
FRONT ROYAL*   FAIR      39  30  70 MISG      29.62F
LURAY*         MOCLDY    43  32  65 SW8       29.63F
NEW MARKET*    PTCLDY    39  28  64 SW5       29.63F
STAUNTON*      MOCLDY    32  27  82 S3        29.66F
WAYNESBORO*    CLOUDY    42  29  61 SW6       29.64F

$$

WVZ021-048>050-054>055-121000-
EASTERN WEST VIRGINIA PANHANDLE

CITY           SKY/WX    TMP DP  RH WIND       PRES   REMARKS
MARTINSBURG    MOCLDY    38  27  64 CALM      29.62F
PETERSBURG*    CLOUDY    27  25  90 CALM      29.59F

$$

VAZ036>039-050-121000-
CENTRAL FOOTHILLS

CITY           SKY/WX    TMP DP  RH WIND       PRES   REMARKS
CHARLOTTESVILL CLOUDY    38  29  70 S7        29.67F
CULPEPER*      FAIR      40  29  64 S7        29.69F
ORANGE*        MOCLDY    34  30  86 CALM      29.69F
GORDONSVILLE*  CLOUDY    36  30  80 SW3       29.68F
WARRENTON*     MOCLDY    41  28  60 S6        29.68F

$$

VAZ055>057-121000-
NORTH AND CENTRAL PIEDMONT

CITY           SKY/WX    TMP DP  RH WIND       PRES   REMARKS
FREDERICKSBRG* CLOUDY    40  32  73 S7        29.70F
STAFFORD*      CLOUDY    38  30  74 S3        29.74F

$$

NCZ024-NYZ072-PAZ021-071-VAZ022-071-121000-
OTHER REGIONAL OBSERVATIONS

CITY           SKY/WX    TMP DP  RH WIND       PRES   REMARKS
NEW YORK CITY  CLOUDY    43  33  68 S7        29.81F
PHILADELPHIA   CLOUDY    42  33  70 S10       29.75F
PITTSBURGH     CLOUDY    40  29  64 W14G26    29.55R
ROANOKE        CLOUDY    40  29  64 VRB3      29.70F
RICHMOND       CLOUDY    40  31  70 S12       29.72F
RALEIGH        CLOUDY    41  33  73 SW10      29.78F

$$

ANZ530>537-121000-
MARINE OBSERVATIONS

STATION/POSITION TIME  TEMP    WIND        PRES
                       AIR SEA DIR/SP/G
                 (UTC) (F)     (DEG/KT/KT) (MB)
THOMAS PT LIGHT  0900   45 47  180/ 24/ 26   N/A
BALT KEY BRIDGE  0848   45     180/ 12/ 14 1005.7F
COVE POINT       0848   44     210/ 18/ 20 1007.3F
LEWISETTA        0848   43 44  200/ 10/ 11 1007.2F
SOLOMONS ISLAND  0848   44 48  190/ 13/ 15 1006.7F
PINEY POINT      0848          200/ 11/ 13   N/A

$$




USA.gov is the U.S. government's official web portal to all federal, state and local government web resources and services.